{"data":{"norad_id":59449,"epoch":"2026-09-21T23:49:50.244096Z","epoch_age_seconds":134490,"freshness":"FRESH","line1":"1 59449U 24066H   26264.99294264  .00000779  00000+0  81239-4 0  9993","line2":"2 59449  45.6062 137.0843 0002975 230.3334 129.7285 14.99428821134351","mean_motion":14.99428821,"eccentricity":0.0002975,"inclination_deg":45.6062,"raan_deg":137.0843,"arg_perigee_deg":230.3334,"mean_anomaly_deg":129.7285,"bstar":8.1239e-5,"rev_number":13435,"period_min":96.036569381108,"perigee_km":566.59328084767,"apogee_km":570.72662503467,"semimajor_km":6946.7969529412,"source":"CELESTRAK","updated_at":"2026-09-23T09:00:19.375811Z"}}